Simultaneous Nadir Overpasses (SNOs) Predictions

Prediction of SNOs between NOAA-21 and PACE Satellite Orbit:

Table of predicted SNOs for the next 14.0 days since TLE Epoch: 9/6/2024
Index Date (NOAA-21) Time (NOAA-21) Lat,Lon (NOAA-21) SZA (NOAA-21 ) Date (PACE) Time (PACE) Lat,Lon (PACE) SZA (PACE ) Distance(km) Time Diff (sec)
1 09/08/2024 16:07:04 -79.88, 80.54 103.41 09/08/2024 16:07:07 -79.87, 80.69 103.43 3.03 3
2 09/10/2024 19:42:43 79.91,-153.65 77.44 09/10/2024 19:43:29 79.91,-153.70 77.42 1.14 46
3 09/10/2024 20:33:22 -79.74, 15.29 102.86 09/10/2024 20:32:33 -79.74, 15.31 102.84 0.43 49
4 09/13/2024 00:09:02 79.81, 140.72 78.06 09/13/2024 00:08:54 79.80, 140.76 78.06 0.95 8
5 09/15/2024 03:44:43 -79.93, -94.40 100.91 09/15/2024 03:45:15 -79.93, -94.29 100.94 2.05 32
6 09/15/2024 04:35:21 79.72, 74.98 78.71 09/15/2024 04:34:18 79.71, 75.06 78.73 1.55 63
7 09/17/2024 07:20:21 79.96, 31.40 79.95 09/17/2024 07:21:32 79.96, 31.38 79.92 0.49 71
8 09/17/2024 08:11:00 -79.79,-159.63 100.35 09/17/2024 08:10:36 -79.78,-159.55 100.35 1.85 24



Historial Predications of SNOs between NOAA-21 and PACE
